Weather History for PASD - March, 2013

Change the Weather History Date:

Sunday, March 24, 2013

  Actual Average Record
Temperature  
Mean Temperature 24 °F -  
Max Temperature 28 °F 33 °F 44 °F (1981)
Min Temperature 21 °F 26 °F 14 °F (2008)
Degree Days  
Heating Degree Days 40    
Moisture  
Dew Point 20 °F    
Average Humidity 82    
Maximum Humidity 100    
Minimum Humidity 80    
Precipitation  
Precipitation 0.00 in - - ()
Sea Level Pressure  
Sea Level Pressure 30.02 in    
Wind  
Wind Speed 26 mph (NNW)    
Max Wind Speed 36 mph    
Max Gust Speed 44 mph    
Visibility 10 miles    
Events      
Averages and records for this station are not official NWS values.
T = Trace of Precipitation, MM = Missing Value Source: NWS Daily Summary

Daily Weather History Graph

Daily Weather History Graph

Search for Another Location

Airport or City:

Trip Planner

Search our weather history database for the weather conditions in past years. The results will help you decide how hot, cold, wet, or windy it might be!

Date:

Astronomy

Mar. 24, 2013 Rise Set
Actual Time 8:32 AM AKDT 9:04 PM AKDT
Civil Twilight 7:56 AM AKDT 9:41 PM AKDT
Nautical Twilight 7:12 AM AKDT 10:25 PM AKDT
Astronomical Twilight 6:25 AM AKDT 11:13 PM AKDT
Moon 6:27 PM AKDT (3/24) 7:12 AM AKDT (3/24)
Length of Visible Light 13h 45m
Length of Day
12h 32m
Waxing Gibbous, 92% of the Moon is Illuminated
Mar 24
Waxing Gibbous
Mar 27
Full
Apr 2
Last Quarter
Apr 10
New
Apr 18
First Quarter

Hourly Weather History & Observations

Time (AKDT) Temp. Windchill Dew Point Humidity Pressure Visibility Wind Dir Wind Speed Gust Speed Precip Events Conditions
12:16 AM 28.4 °F 13.5 °F 28.4 °F 100% 29.77 in 10.0 mi NNW 26.5 mph 31.1 mph N/A   Overcast
1:36 AM 28.4 °F 17.0 °F 26.6 °F 93% 29.83 in 10.0 mi NNW 15.0 mph - N/A   Overcast
6:47 AM 26.6 °F 11.1 °F 21.2 °F 80% 29.93 in 10.0 mi NW 26.5 mph 34.5 mph N/A   Overcast
7:49 AM 24.8 °F 7.9 °F 21.2 °F 86% 29.95 in 10.0 mi NW 29.9 mph 38.0 mph N/A   Mostly Cloudy
8:47 AM 24.8 °F 9.0 °F 19.4 °F 80% 29.98 in 10.0 mi NNW 25.3 mph 39.1 mph N/A   Mostly Cloudy
9:50 AM 24.8 °F 7.1 °F 19.4 °F 80% 29.99 in 10.0 mi NNW 33.4 mph 41.4 mph N/A   Mostly Cloudy
10:16 AM 24.8 °F 6.6 °F 19.4 °F 80% 30.00 in 10.0 mi NNW 35.7 mph 39.1 mph N/A   Mostly Cloudy
10:36 AM 24.8 °F 7.3 °F 19.4 °F 80% 29.99 in 10.0 mi NNW 32.2 mph 41.4 mph N/A   Mostly Cloudy
10:56 AM 24.8 °F 8.1 °F 19.4 °F 80% 30.02 in 10.0 mi North 28.8 mph 39.1 mph N/A   Mostly Cloudy
11:36 AM 24.8 °F 8.1 °F 19.4 °F 80% 30.03 in 10.0 mi NNW 28.8 mph 39.1 mph N/A   Mostly Cloudy
11:56 AM 24.8 °F 6.8 °F 19.4 °F 80% 30.02 in 10.0 mi NNW 34.5 mph 42.6 mph N/A   Mostly Cloudy
12:16 PM 24.8 °F 6.6 °F 19.4 °F 80% 30.01 in 10.0 mi NNW 35.7 mph 43.7 mph N/A   Mostly Cloudy
12:36 PM 24.8 °F 8.4 °F 19.4 °F 80% 30.04 in 10.0 mi North 27.6 mph 35.7 mph N/A   Mostly Cloudy
12:56 PM 24.8 °F 7.6 °F 19.4 °F 80% 30.03 in 10.0 mi North 31.1 mph 38.0 mph N/A   Mostly Cloudy
1:16 PM 24.8 °F 8.1 °F 19.4 °F 80% 30.04 in 10.0 mi North 28.8 mph 41.4 mph N/A   Mostly Cloudy
1:56 PM 24.8 °F 9.6 °F 19.4 °F 80% 30.06 in 10.0 mi North 23.0 mph 33.4 mph N/A   Mostly Cloudy
2:16 PM 24.8 °F 11.1 °F 19.4 °F 80% 30.07 in 10.0 mi NNW 18.4 mph 32.2 mph N/A   Mostly Cloudy
2:52 PM 24.8 °F 8.7 °F 19.4 °F 80% 30.06 in 10.0 mi NNW 26.5 mph 34.5 mph N/A   Mostly Cloudy
3:16 PM 24.8 °F 8.1 °F 19.4 °F 80% 30.06 in 10.0 mi North 28.8 mph 38.0 mph N/A   Mostly Cloudy
3:36 PM 24.8 °F 8.1 °F 19.4 °F 80% 30.06 in 10.0 mi North 28.8 mph 38.0 mph N/A   Mostly Cloudy
3:50 PM 24.8 °F 9.0 °F 19.4 °F 80% 30.06 in 10.0 mi NNW 25.3 mph 32.2 mph N/A   Mostly Cloudy
4:16 PM 24.8 °F 11.5 °F 19.4 °F 80% 30.06 in 10.0 mi North 17.3 mph 29.9 mph N/A   Mostly Cloudy
4:36 PM 24.8 °F 11.1 °F 19.4 °F 80% 30.06 in 10.0 mi North 18.4 mph 25.3 mph N/A   Mostly Cloudy
9:36 PM 23.0 °F 13.9 °F 17.6 °F 80% 30.13 in 10.0 mi NW 8.1 mph - N/A   Clear
11:36 PM 21.2 °F 9.5 °F 15.8 °F 80% 30.13 in 10.0 mi NNW 11.5 mph - N/A   Clear
11:56 PM 21.2 °F 6.4 °F 15.8 °F 80% 30.13 in 10.0 mi NNW 18.4 mph - N/A   Clear